Погода в Поселкек Курорт-Дарасун

Россия / Забайкальский край     51°11′52″N   113°43′19″E
темп.,
°C
ветер,
м/с
пор.,
м/с
влажн.,
%
обл.,
%
осадки,
мм/ч
давл.,
гПа
погр.,
м
24 мая, вт
вт2400:00+5зсз11865 0.0 101511
03:00+4сз229041 0.2 101715
06:00+4сз22904 0.0 102023
09:00+11ссз35575 0.0 1021514
12:00+17с562810 0.0 10202627
15:00+20ссз462189 0.0 10183311
18:00+20ссз561929 0.0 10183240
21:00+14сз22319 0.0 102012
25 мая, ср
ср2500:00+10зюз11345 0.0 102110
03:00+8зюз11405 0.0 102210
06:00+7з11461 0.0 102210
09:00+16сз24315 0.0 1021410
12:00+22сз34215 0.0 10182817
15:00+23зсз35184 0.0 10153062
18:00+23сз45165 0.0 10123501
21:00+16ссз223050 0.0 101211
26 мая, чт
чт2600:00+12зюз113292 0.0 101210
03:00+10юз22380 0.0 101211
06:00+9зюз22470 0.0 101113
09:00+18з24325 0.0 1008429
12:00+22з362273 0.0 10042941
15:00+24з471740 0.0 10003585
18:00+25з3617100 0.0 9963349
21:00+12вюв2276100 2.9 100035
27 мая, пт
пт2700:00+11зюз22785 0.0 99915
03:00+9з312765 0.0 999250
06:00+8зсз514750 0.0 999598
09:00+13зсз812490 0.0 9971530
12:00+17сз81230100 0.0 9963058
15:00+17сз91128100 0.0 9953088
18:00+16ссз8102972 0.0 9953163
21:00+9с49601 0.1 999449
28 мая, сб
сб2800:00+5зюз118368 0.1 100110
03:00+4ссз118397 0.3 100211
06:00+4зсз1188100 0.0 100319
09:00+7ссз347251 0.0 1003801
12:00+12ссз573380 0.0 10012273
15:00+14ссз5626100 0.0 9992770
18:00+13зсз683574 0.0 10002007
21:00+7ссз496864 0.2 1003466